| time (UTC) | temp F | wind direction | speed knots | gust knots | rain 1hr in | rain 24hr in | rain mn in | humidity % | barometer mb |
| 20260903224552 | 85 | 298 | 0.0 | 7.8 | 0.00 | 0.12 | 0.12 | 69 | 1006.1 |
| 20260903223111 | 85 | 256 | 0.0 | 7.8 | 0.00 | 0.12 | 0.12 | 69 | 1006.0 |
| 20260903221551 | 84 | 86 | 0.0 | 7.8 | 0.00 | 0.12 | 0.12 | 69 | 1006.1 |
| 20260903220115 | 85 | 277 | 0.0 | 7.8 | 0.00 | 0.12 | 0.12 | 68 | 1006.1 |
| 20260903214544 | 85 | 242 | 0.9 | 7.8 | 0.00 | 0.12 | 0.12 | 67 | 1005.8 |
| 20260903213039 | 85 | 249 | 0.0 | 7.8 | 0.00 | 0.12 | 0.12 | 67 | 1005.9 |
| 20260903211535 | 85 | 163 | 0.0 | 12.2 | 0.00 | 0.12 | 0.12 | 67 | 1006.2 |
| 20260903210031 | 85 | 48 | 0.9 | 10.4 | 0.00 | 0.12 | 0.12 | 68 | 1006.2 |
| 20260903204531 | 84 | 111 | 0.0 | 7.0 | 0.00 | 0.12 | 0.12 | 67 | 1006.4 |
| 20260903203021 | 84 | 349 | 0.9 | 10.4 | 0.00 | 0.12 | 0.12 | 68 | 1006.4 |
| 20260903201517 | 83 | 111 | 0.0 | 10.4 | 0.00 | 0.12 | 0.12 | 69 | 1006.5 |
| 20260903200013 | 82 | 163 | 0.0 | 4.3 | 0.00 | 0.12 | 0.12 | 69 | 1006.7 |
| 20260903194508 | 80 | 117 | 0.0 | 6.1 | 0.00 | 0.12 | 0.12 | 68 | 1006.9 |
| 20260903193004 | 79 | 17 | 0.0 | 9.6 | 0.00 | 0.12 | 0.12 | 65 | 1007.2 |
| 20260903191600 | 78 | 180 | 0.9 | 9.6 | 0.00 | 0.12 | 0.12 | 54 | 1007.5 |
| 20260903190054 | 75 | 342 | 0.0 | 5.2 | 0.00 | 0.12 | 0.12 | 29 | 1007.7 |
| 20260903184550 | 74 | 25 | 0.0 | 5.2 | 0.00 | 0.12 | 0.12 | 26 | 1008.0 |
| 20260903183047 | 74 | 325 | 0.0 | 0.9 | 0.00 | 0.12 | 0.12 | 27 | 1008.3 |
| 20260903181541 | 74 | 112 | 0.0 | 6.1 | 0.00 | 0.12 | 0.12 | 36 | 1008.8 |
| 20260903180045 | 74 | 224 | 0.0 | 3.5 | 0.00 | 0.12 | 0.12 | 45 | 1008.4 |
| 20260903174535 | 74 | 355 | 0.0 | 0.0 | 0.00 | 0.12 | 0.12 | 46 | 1008.7 |
| 20260903173027 | 73 | 241 | 0.0 | 0.0 | 0.00 | 0.12 | 0.12 | 39 | 1009.0 |
| 20260903171529 | 73 | 240 | 0.0 | 0.0 | 0.00 | 0.12 | 0.12 | 31 | 1008.9 |
| 20260903170033 | 72 | 9 | 0.0 | 4.3 | 0.01 | 0.12 | 0.12 | 16 | 1009.1 |
| 20260903164520 | 71 | 243 | 0.0 | 4.3 | 0.01 | 0.12 | 0.12 | 100 | 1009.7 |
| 20260903163015 | 70 | 103 | 0.0 | 0.0 | 0.01 | 0.12 | 0.12 | 100 | 1009.9 |
| 20260903161505 | 69 | 240 | 0.0 | 0.0 | 0.01 | 0.12 | 0.12 | 100 | 1009.7 |
| 20260903160100 | 68 | 111 | 0.0 | 0.0 | 0.00 | 0.11 | 0.11 | 100 | 1009.9 |
| 20260903154556 | 68 | 252 | 0.0 | 0.0 | 0.00 | 0.11 | 0.11 | 100 | 1010.7 |
| 20260903153051 | 68 | 295 | 0.0 | 0.0 | 0.03 | 0.11 | 0.11 | 100 | 1010.7 |
| 20260903151550 | 68 | 180 | 0.0 | 0.0 | 0.03 | 0.11 | 0.11 | 100 | 1010.6 |
| 20260903150104 | 68 | 226 | 2.6 | 10.4 | 0.03 | 0.11 | 0.11 | 100 | 1011.8 |
| 20260903144538 | 68 | 200 | 0.9 | 6.1 | 0.02 | 0.10 | 0.10 | 100 | 1011.2 |
| 20260903143033 | 69 | 88 | 0.0 | 0.0 | 0.00 | 0.08 | 0.08 | 100 | 1010.7 |
| 20260903141535 | 69 | 88 | 0.0 | 0.0 | 0.00 | 0.08 | 0.08 | 100 | 1010.3 |
| 20260903140036 | 69 | 91 | 0.0 | 3.5 | 0.00 | 0.08 | 0.08 | 100 | 1009.8 |
| 20260903134520 | 69 | 309 | 0.0 | 0.0 | 0.00 | 0.08 | 0.08 | 100 | 1009.7 |
| 20260903133020 | 68 | 133 | 0.0 | 0.0 | 0.00 | 0.08 | 0.08 | 100 | 1009.8 |
| 20260903131515 | 0 | 312 | 0.0 | 0.0 | 0.00 | 0.08 | 0.08 | 1010.0 | |
| 20260903130007 | 0 | 315 | 0.0 | 0.0 | 0.00 | 0.08 | 0.08 | 1009.9 | |
| 20260903124503 | 0 | 316 | 0.0 | 0.0 | 0.00 | 0.08 | 0.08 | 1009.8 | |
| 20260903123058 | 0 | 339 | 0.0 | 0.0 | 0.00 | 0.08 | 0.08 | 1010.1 | |
| 20260903121557 | 0 | 12 | 0.0 | 9.6 | 0.00 | 0.08 | 0.08 | 1010.4 | |
| 20260903120105 | 0 | 35 | 0.0 | 0.0 | 0.00 | 0.08 | 0.08 | 1010.3 | |
| 20260903114554 | 0 | 49 | 0.0 | 0.0 | 0.00 | 0.08 | 0.08 | 1010.1 | |
| 20260903113057 | 0 | 49 | 0.0 | 0.0 | 0.00 | 0.08 | 0.08 | 1009.8 | |
| 20260903111553 | 0 | 22 | 0.9 | 9.6 | 0.00 | 0.08 | 0.08 | 1009.8 | |
| 20260903110101 | 0 | 38 | 5.2 | 12.2 | 0.00 | 0.08 | 0.08 | 1010.6 | |
| 20260903104554 | 0 | 328 | 5.2 | 7.0 | 0.00 | 0.09 | 0.08 | 1011.2 | |
| 20260903103047 | 71 | 348 | 0.0 | 5.2 | 0.00 | 0.09 | 0.08 | 100 | 1010.7 |
| 20260903101543 | 71 | 267 | 0.0 | 0.0 | 0.02 | 0.09 | 0.08 | 100 | 1010.1 |
| 20260903100038 | 73 | 267 | 0.0 | 0.0 | 0.02 | 0.09 | 0.08 | 19 | 1010.0 |
| 20260903094537 | 74 | 250 | 3.5 | 14.8 | 0.02 | 0.12 | 0.08 | 42 | 1010.2 |
| 20260903093029 | 72 | 243 | 6.1 | 14.8 | 0.02 | 0.12 | 0.08 | 2 | 1010.4 |
| 20260903091523 | 70 | 186 | 0.0 | 0.0 | 0.06 | 0.10 | 0.06 | 100 | 1009.7 |
| 20260903090019 | 70 | 186 | 0.0 | 0.0 | 0.06 | 0.10 | 0.06 | 100 | 1009.1 |
| 20260903084532 | 71 | 186 | 0.0 | 0.0 | 0.06 | 0.14 | 0.06 | 100 | 1009.0 |
| 20260903083010 | 73 | 184 | 0.0 | 5.2 | 0.06 | 0.14 | 0.06 | 41 | 1008.8 |
| 20260903081506 | 76 | 207 | 0.0 | 7.8 | 0.00 | 0.08 | 0.00 | 69 | 1009.6 |
| 20260903080001 | 75 | 221 | 0.0 | 7.0 | 0.00 | 0.08 | 0.00 | 69 | 1009.0 |
| 20260903074602 | 75 | 140 | 0.0 | 7.0 | 0.00 | 0.08 | 0.00 | 38 | 1009.6 |
| 20260903073052 | 75 | 219 | 0.9 | 7.0 | 0.00 | 0.08 | 0.00 | 39 | 1009.5 |
| 20260903071548 | 71 | 226 | 0.0 | 3.5 | 0.00 | 0.08 | 0.00 | 100 | 1009.2 |
| 20260903070043 | 71 | 96 | 0.0 | 0.0 | 0.00 | 0.08 | 0.00 | 100 | 1008.6 |
| 20260903064538 | 71 | 96 | 0.0 | 0.0 | 0.00 | 0.08 | 0.00 | 100 | 1008.5 |
| 20260903063034 | 71 | 96 | 0.0 | 0.0 | 0.00 | 0.08 | 0.00 | 100 | 1008.6 |
| 20260903061536 | 71 | 96 | 0.0 | 0.0 | 0.00 | 0.08 | 0.00 | 100 | 1008.6 |
| 20260903060037 | 71 | 96 | 0.0 | 0.0 | 0.00 | 0.08 | 0.00 | 100 | 1008.8 |
| 20260903054522 | 71 | 96 | 0.0 | 0.0 | 0.00 | 0.08 | 0.00 | 100 | 1008.6 |
| 20260903053028 | 71 | 96 | 0.0 | 0.0 | 0.00 | 0.08 | 0.00 | 100 | 1008.5 |
| 20260903051513 | 71 | 96 | 0.0 | 0.0 | 0.00 | 0.08 | 0.00 | 100 | 1008.6 |
| 20260903050010 | 72 | 96 | 0.0 | 0.0 | 0.00 | 0.08 | 0.00 | 100 | 1008.7 |
| 20260903044511 | 72 | 96 | 0.0 | 0.0 | 0.00 | 0.08 | 0.08 | 100 | 1008.6 |
| 20260903043015 | 73 | 96 | 0.0 | 0.0 | 0.00 | 0.08 | 0.08 | 100 | 1008.5 |
| 20260903041506 | 73 | 96 | 0.0 | 0.0 | 0.00 | 0.08 | 0.08 | 100 | 1008.6 |
| 20260903040008 | 74 | 96 | 0.0 | 0.0 | 0.00 | 0.08 | 0.08 | 100 | 1008.7 |
| 20260903034506 | 74 | 96 | 0.0 | 0.0 | 0.00 | 0.08 | 0.08 | 100 | 1008.7 |
| 20260903033005 | 74 | 96 | 0.0 | 0.0 | 0.00 | 0.08 | 0.08 | 100 | 1008.9 |
| 20260903031504 | 74 | 96 | 0.0 | 0.0 | 0.00 | 0.08 | 0.08 | 100 | 1008.8 |
| 20260903030003 | 75 | 96 | 0.0 | 0.0 | 0.00 | 0.08 | 0.08 | 100 | 1008.8 |
| 20260903024504 | 75 | 96 | 0.0 | 0.0 | 0.00 | 0.08 | 0.08 | 100 | 1008.8 |
| 20260903023002 | 75 | 96 | 0.0 | 0.0 | 0.00 | 0.08 | 0.08 | 100 | 1008.8 |
| 20260903021506 | 75 | 96 | 0.0 | 0.0 | 0.00 | 0.08 | 0.08 | 100 | 1008.6 |
| 20260903020105 | 76 | 96 | 0.0 | 0.0 | 0.00 | 0.08 | 0.08 | 100 | 1008.5 |
| 20260903014602 | 76 | 96 | 0.0 | 0.0 | 0.00 | 0.08 | 0.08 | 3 | 1008.5 |
| 20260903013050 | 76 | 96 | 0.0 | 0.0 | 0.00 | 0.08 | 0.08 | 4 | 1008.2 |
| 20260903011546 | 77 | 96 | 0.0 | 0.0 | 0.00 | 0.08 | 0.08 | 16 | 1008.1 |
| 20260903010040 | 77 | 96 | 0.0 | 0.0 | 0.00 | 0.08 | 0.08 | 30 | 1008.1 |
| 20260903004537 | 78 | 96 | 0.0 | 0.0 | 0.00 | 0.08 | 0.08 | 45 | 1008.2 |
| 20260903003032 | 79 | 96 | 0.0 | 0.0 | 0.00 | 0.08 | 0.08 | 49 | 1008.2 |
| 20260903001528 | 80 | 96 | 0.0 | 0.0 | 0.00 | 0.08 | 0.08 | 53 | 1008.2 |
| 20260903000025 | 81 | 96 | 0.0 | 0.0 | 0.00 | 0.08 | 0.08 | 59 | 1008.1 |
| 20260902234518 | 82 | 96 | 0.0 | 0.0 | 0.00 | 0.08 | 0.08 | 65 | 1008.0 |
| 20260902233014 | 82 | 101 | 0.0 | 0.0 | 0.00 | 0.08 | 0.08 | 67 | 1008.1 |
| 20260902231512 | 83 | 105 | 0.0 | 3.5 | 0.00 | 0.08 | 0.08 | 69 | 1008.1 |
| 20260902230005 | 83 | 300 | 0.0 | 0.0 | 0.00 | 0.08 | 0.08 | 68 | 1008.2 |